{"data":{"norad_id":63417,"intl_designator":"2025-065U","name":"STARLINK-33535","alt_names":[],"object_type":"PAYLOAD","status":"ACTIVE","operator":null,"country":"US","launch_date":"2025-03-31","launch_site_code":"AFETR","launch_vehicle":null,"mission":null,"orbit_class":"UNKNOWN","rcs_meters":null,"size_class":null,"mass_kg":null,"dimensions":null,"purposes":["comms"],"wikipedia_slug":null,"has_3d_model":false,"image_url":null,"decayed_at":null,"tle_current":{"epoch":"2026-05-24T18:08:42.422784Z","epoch_age_seconds":86377,"freshness":"FRESH","line1":"1 63417U 25065U   26144.75604656  .00013882  00000+0  51292-3 0  9998","line2":"2 63417  43.0042  37.3940 0001236 263.4952  96.5759 15.27587771 64477","mean_motion":15.27587771,"eccentricity":0.0001236,"inclination_deg":43.0042,"raan_deg":37.394,"arg_perigee_deg":263.4952,"mean_anomaly_deg":96.5759,"bstar":0.00051292,"rev_number":6447,"period_min":94.266269168765,"perigee_km":482.17778724328,"apogee_km":483.87386669411,"semimajor_km":6861.1628269687,"source":"CELESTRAK","updated_at":"2026-05-25T13:38:19.972412Z"}}}